Location: Unspecified
(37.6100°N, 2.7800°W)
Time: 07:57:37
(UTC+00:00)

OTV 5 (USA 277) - Visible Passes

Search period start: 22 September 2017 00:00
Search period end: 02 October 2017 00:00
Orbit: 404 x 417 km, 43.0° (Epoch: 07 September)

Date Brightness Start Highest point End Pass type
(mag) Time Alt. Az. Time Alt. Az. Time Alt. Az.
22 Sep ? 03:17:02 10° ENE 03:17:02 10° ENE 03:17:05 10° ENE visible
22 Sep ? 04:49:48 23° WNW 04:51:15 36° N 04:54:21 10° ENE visible
23 Sep ? 04:01:10 32° NE 04:01:10 32° NE 04:03:18 10° ENE visible
24 Sep ? 04:45:16 22° NW 04:46:39 30° N 04:49:37 10° ENE visible
25 Sep ? 03:56:38 25° NNE 03:56:38 25° NNE 03:58:29 10° ENE visible
25 Sep ? 05:30:08 10° WNW 05:33:14 37° N 05:36:20 10° E visible
26 Sep ? 04:40:46 23° NW 04:42:04 32° N 04:45:05 10° ENE visible
27 Sep ? 03:52:12 22° NE 03:52:12 22° NE 03:53:52 10° ENE visible
27 Sep ? 05:25:16 10° WNW 05:28:33 62° NNE 05:31:48 10° ESE visible
28 Sep ? 04:36:28 34° NNW 04:37:26 46° NNE 04:40:37 10° E visible
29 Sep ? 03:48:02 21° ENE 03:48:02 21° ENE 03:49:24 10° E visible
29 Sep ? 05:20:49 12° WNW 05:23:43 59° SSW 05:26:57 10° SE visible
30 Sep ? 04:32:30 79° WNW 04:32:41 90° SSE 04:35:57 10° ESE visible
01 Oct ? 03:44:18 14° E 03:44:18 14° E 03:44:51 10° ESE visible
01 Oct ? 05:17:05 16° WSW 05:18:42 23° SW 05:21:24 10° SSE visible
